owner,sensor,date,latitude,longitude,vertical_datum,sea_water_temperature,qcFlag 
WAVCIS,ioos:station:WAVCIS:CSI03:1,2009-01-01T00:00:00Z,29.4412,-92.0613,10.0,16.27,11111222 
WAVCIS,ioos:station:WAVCIS:CSI03:1,2009-01-01T01:00:00Z,29.4412,-92.0613,10.0,16.3,11111222 
WAVCIS,ioos:station:WAVCIS:CSI03:1,2009-01-01T02:00:00Z,29.4412,-92.0613,10.0,16.23,11111222 
WAVCIS,ioos:station:WAVCIS:CSI03:1,2009-01-01T03:00:00Z,29.4412,-92.0613,10.0,15.92,11111222 
WAVCIS,ioos:station:WAVCIS:CSI03:1,2009-01-01T04:00:00Z,29.4412,-92.0613,10.0,15.89,11111222 
WAVCIS,ioos:station:WAVCIS:CSI03:1,2009-01-01T05:00:00Z,29.4412,-92.0613,10.0,15.78,11111222 
WAVCIS,ioos:station:WAVCIS:CSI03:1,2009-01-01T06:00:00Z,29.4412,-92.0613,10.0,15.61,11111222 
WAVCIS,ioos:station:WAVCIS:CSI03:1,2009-01-01T07:00:00Z,29.4412,-92.0613,10.0,15.33,11111222 
WAVCIS,ioos:station:WAVCIS:CSI03:1,2009-01-01T08:00:00Z,29.4412,-92.0613,10.0,15.17,11111222 
WAVCIS,ioos:station:WAVCIS:CSI03:1,2009-01-01T09:00:00Z,29.4412,-92.0613,10.0,14.98,11111222 
WAVCIS,ioos:station:WAVCIS:CSI03:1,2009-01-01T10:00:00Z,29.4412,-92.0613,10.0,14.98,11111222 
WAVCIS,ioos:station:WAVCIS:CSI03:1,2009-01-01T11:00:00Z,29.4412,-92.0613,10.0,14.77,11111222 
WAVCIS,ioos:station:WAVCIS:CSI03:1,2009-01-01T12:00:00Z,29.4412,-92.0613,10.0,14.95,11111222 
WAVCIS,ioos:station:WAVCIS:CSI03:1,2009-01-01T13:00:00Z,29.4412,-92.0613,10.0,14.97,11111222 
WAVCIS,ioos:station:WAVCIS:CSI03:1,2009-01-01T14:00:00Z,29.4412,-92.0613,10.0,15.03,11111222 
WAVCIS,ioos:station:WAVCIS:CSI03:1,2009-01-01T15:00:00Z,29.4412,-92.0613,10.0,15.01,11111222 
WAVCIS,ioos:station:WAVCIS:CSI03:1,2009-01-01T16:00:00Z,29.4412,-92.0613,10.0,14.94,11111222 
WAVCIS,ioos:station:WAVCIS:CSI03:1,2009-01-01T17:00:00Z,29.4412,-92.0613,10.0,14.83,11111222 
WAVCIS,ioos:station:WAVCIS:CSI03:1,2009-01-01T18:00:00Z,29.4412,-92.0613,10.0,14.7,11111222 
WAVCIS,ioos:station:WAVCIS:CSI03:1,2009-01-01T19:00:00Z,29.4412,-92.0613,10.0,14.65,11111222 
WAVCIS,ioos:station:WAVCIS:CSI03:1,2009-01-01T20:00:00Z,29.4412,-92.0613,10.0,14.68,11111222 
WAVCIS,ioos:station:WAVCIS:CSI03:1,2009-01-01T21:00:00Z,29.4412,-92.0613,10.0,14.73,11111222 
WAVCIS,ioos:station:WAVCIS:CSI03:1,2009-01-01T22:00:00Z,29.4412,-92.0613,10.0,14.97,11111222 
WAVCIS,ioos:station:WAVCIS:CSI03:1,2009-01-01T23:00:00Z,29.4412,-92.0613,10.0,15.16,11111222 
WAVCIS,ioos:station:WAVCIS:CSI03:1,2009-01-02T00:00:00Z,29.4412,-92.0613,10.0,15.3,11111222 
WAVCIS,ioos:station:WAVCIS:CSI03:1,2009-01-02T01:00:00Z,29.4412,-92.0613,10.0,15.33,11111222 
WAVCIS,ioos:station:WAVCIS:CSI03:1,2009-01-02T02:00:00Z,29.4412,-92.0613,10.0,15.4,11111222 
WAVCIS,ioos:station:WAVCIS:CSI03:1,2009-01-02T03:00:00Z,29.4412,-92.0613,10.0,15.43,11111222 
WAVCIS,ioos:station:WAVCIS:CSI03:1,2009-01-02T04:00:00Z,29.4412,-92.0613,10.0,15.39,11111222 
WAVCIS,ioos:station:WAVCIS:CSI03:1,2009-01-02T05:00:00Z,29.4412,-92.0613,10.0,15.42,11111222 
WAVCIS,ioos:station:WAVCIS:CSI03:1,2009-01-02T06:00:00Z,29.4412,-92.0613,10.0,15.37,11111222 
WAVCIS,ioos:station:WAVCIS:CSI03:1,2009-01-02T07:00:00Z,29.4412,-92.0613,10.0,15.34,11111222 
WAVCIS,ioos:station:WAVCIS:CSI03:1,2009-01-02T08:00:00Z,29.4412,-92.0613,10.0,15.28,11111222 
WAVCIS,ioos:station:WAVCIS:CSI03:1,2009-01-02T09:00:00Z,29.4412,-92.0613,10.0,15.22,11111222 
WAVCIS,ioos:station:WAVCIS:CSI03:1,2009-01-02T10:00:00Z,29.4412,-92.0613,10.0,15.26,11111222 
WAVCIS,ioos:station:WAVCIS:CSI03:1,2009-01-02T11:00:00Z,29.4412,-92.0613,10.0,15.18,11111222 
WAVCIS,ioos:station:WAVCIS:CSI03:1,2009-01-02T12:00:00Z,29.4412,-92.0613,10.0,14.99,11111222 
WAVCIS,ioos:station:WAVCIS:CSI03:1,2009-01-02T13:00:00Z,29.4412,-92.0613,10.0,15.07,11111222 
WAVCIS,ioos:station:WAVCIS:CSI03:1,2009-01-02T14:00:00Z,29.4412,-92.0613,10.0,14.95,11111222 
WAVCIS,ioos:station:WAVCIS:CSI03:1,2009-01-02T15:00:00Z,29.4412,-92.0613,10.0,14.78,11111222 
WAVCIS,ioos:station:WAVCIS:CSI03:1,2009-01-02T16:00:00Z,29.4412,-92.0613,10.0,14.87,11111222 
WAVCIS,ioos:station:WAVCIS:CSI03:1,2009-01-02T17:00:00Z,29.4412,-92.0613,10.0,15.12,11111222 
WAVCIS,ioos:station:WAVCIS:CSI03:1,2009-01-02T18:00:00Z,29.4412,-92.0613,10.0,15.28,11111222 
WAVCIS,ioos:station:WAVCIS:CSI03:1,2009-01-02T19:00:00Z,29.4412,-92.0613,10.0,15.42,11111222 
WAVCIS,ioos:station:WAVCIS:CSI03:1,2009-01-02T20:00:00Z,29.4412,-92.0613,10.0,15.65,11111222 
WAVCIS,ioos:station:WAVCIS:CSI03:1,2009-01-02T21:00:00Z,29.4412,-92.0613,10.0,15.67,11111222 
WAVCIS,ioos:station:WAVCIS:CSI03:1,2009-01-02T22:00:00Z,29.4412,-92.0613,10.0,15.68,11111222 
WAVCIS,ioos:station:WAVCIS:CSI03:1,2009-01-02T23:00:00Z,29.4412,-92.0613,10.0,15.82,11111222 
WAVCIS,ioos:station:WAVCIS:CSI03:1,2009-01-03T00:00:00Z,29.4412,-92.0613,10.0,16.02,11111222 
WAVCIS,ioos:station:WAVCIS:CSI03:1,2009-01-03T01:00:00Z,29.4412,-92.0613,10.0,15.9,11111222 
WAVCIS,ioos:station:WAVCIS:CSI03:1,2009-01-03T02:00:00Z,29.4412,-92.0613,10.0,15.73,11111222 
WAVCIS,ioos:station:WAVCIS:CSI03:1,2009-01-03T03:00:00Z,29.4412,-92.0613,10.0,15.87,11111222 
WAVCIS,ioos:station:WAVCIS:CSI03:1,2009-01-03T04:00:00Z,29.4412,-92.0613,10.0,15.92,11111222 
WAVCIS,ioos:station:WAVCIS:CSI03:1,2009-01-03T05:00:00Z,29.4412,-92.0613,10.0,15.84,11111222 
WAVCIS,ioos:station:WAVCIS:CSI03:1,2009-01-03T06:00:00Z,29.4412,-92.0613,10.0,15.75,11111222 
WAVCIS,ioos:station:WAVCIS:CSI03:1,2009-01-03T07:00:00Z,29.4412,-92.0613,10.0,15.7,11111222 
WAVCIS,ioos:station:WAVCIS:CSI03:1,2009-01-03T08:00:00Z,29.4412,-92.0613,10.0,15.98,11111222 
WAVCIS,ioos:station:WAVCIS:CSI03:1,2009-01-03T09:00:00Z,29.4412,-92.0613,10.0,15.87,11111222 
WAVCIS,ioos:station:WAVCIS:CSI03:1,2009-01-03T10:00:00Z,29.4412,-92.0613,10.0,15.64,11111222 
WAVCIS,ioos:station:WAVCIS:CSI03:1,2009-01-03T11:00:00Z,29.4412,-92.0613,10.0,15.6,11111222 
WAVCIS,ioos:station:WAVCIS:CSI03:1,2009-01-03T12:00:00Z,29.4412,-92.0613,10.0,15.55,11111222 
WAVCIS,ioos:station:WAVCIS:CSI03:1,2009-01-03T13:00:00Z,29.4412,-92.0613,10.0,15.49,11111222 
WAVCIS,ioos:station:WAVCIS:CSI03:1,2009-01-03T14:00:00Z,29.4412,-92.0613,10.0,15.52,11111222 
WAVCIS,ioos:station:WAVCIS:CSI03:1,2009-01-03T15:00:00Z,29.4412,-92.0613,10.0,15.34,11111222 
WAVCIS,ioos:station:WAVCIS:CSI03:1,2009-01-03T16:00:00Z,29.4412,-92.0613,10.0,15.41,11111222 
WAVCIS,ioos:station:WAVCIS:CSI03:1,2009-01-03T17:00:00Z,29.4412,-92.0613,10.0,15.33,11111222 
WAVCIS,ioos:station:WAVCIS:CSI03:1,2009-01-03T18:00:00Z,29.4412,-92.0613,10.0,15.43,11111222 
WAVCIS,ioos:station:WAVCIS:CSI03:1,2009-01-03T19:00:00Z,29.4412,-92.0613,10.0,15.22,11111222 
WAVCIS,ioos:station:WAVCIS:CSI03:1,2009-01-03T20:00:00Z,29.4412,-92.0613,10.0,15.29,11111222 
WAVCIS,ioos:station:WAVCIS:CSI03:1,2009-01-03T21:00:00Z,29.4412,-92.0613,10.0,15.36,11111222 
WAVCIS,ioos:station:WAVCIS:CSI03:1,2009-01-03T22:00:00Z,29.4412,-92.0613,10.0,15.44,11111222 
WAVCIS,ioos:station:WAVCIS:CSI03:1,2009-01-03T23:00:00Z,29.4412,-92.0613,10.0,15.59,11111222 
WAVCIS,ioos:station:WAVCIS:CSI03:1,2009-01-04T00:00:00Z,29.4412,-92.0613,10.0,15.65,11111222 
WAVCIS,ioos:station:WAVCIS:CSI03:1,2009-01-04T01:00:00Z,29.4412,-92.0613,10.0,15.62,11111222 
WAVCIS,ioos:station:WAVCIS:CSI03:1,2009-01-04T02:00:00Z,29.4412,-92.0613,10.0,15.53,11111222 
WAVCIS,ioos:station:WAVCIS:CSI03:1,2009-01-04T03:00:00Z,29.4412,-92.0613,10.0,15.48,11111222 
WAVCIS,ioos:station:WAVCIS:CSI03:1,2009-01-04T04:00:00Z,29.4412,-92.0613,10.0,15.72,11111222 
WAVCIS,ioos:station:WAVCIS:CSI03:1,2009-01-04T05:00:00Z,29.4412,-92.0613,10.0,15.77,11111222 
WAVCIS,ioos:station:WAVCIS:CSI03:1,2009-01-04T06:00:00Z,29.4412,-92.0613,10.0,15.73,11111222 
WAVCIS,ioos:station:WAVCIS:CSI03:1,2009-01-04T07:00:00Z,29.4412,-92.0613,10.0,15.75,11111222 
WAVCIS,ioos:station:WAVCIS:CSI03:1,2009-01-04T08:00:00Z,29.4412,-92.0613,10.0,15.81,11111222 
WAVCIS,ioos:station:WAVCIS:CSI03:1,2009-01-04T09:00:00Z,29.4412,-92.0613,10.0,15.76,11111222 
WAVCIS,ioos:station:WAVCIS:CSI03:1,2009-01-04T10:00:00Z,29.4412,-92.0613,10.0,15.66,11111222 
WAVCIS,ioos:station:WAVCIS:CSI03:1,2009-01-04T11:00:00Z,29.4412,-92.0613,10.0,15.68,11111222 
WAVCIS,ioos:station:WAVCIS:CSI03:1,2009-01-04T12:00:00Z,29.4412,-92.0613,10.0,15.73,11111222 
WAVCIS,ioos:station:WAVCIS:CSI03:1,2009-01-04T13:00:00Z,29.4412,-92.0613,10.0,15.89,11111222 
WAVCIS,ioos:station:WAVCIS:CSI03:1,2009-01-04T14:00:00Z,29.4412,-92.0613,10.0,15.8,11111222 
WAVCIS,ioos:station:WAVCIS:CSI03:1,2009-01-04T15:00:00Z,29.4412,-92.0613,10.0,15.44,11111222 
WAVCIS,ioos:station:WAVCIS:CSI03:1,2009-01-04T16:00:00Z,29.4412,-92.0613,10.0,15.53,11111222 
WAVCIS,ioos:station:WAVCIS:CSI03:1,2009-01-04T17:00:00Z,29.4412,-92.0613,10.0,15.92,11111222 
WAVCIS,ioos:station:WAVCIS:CSI03:1,2009-01-04T18:00:00Z,29.4412,-92.0613,10.0,15.9,11111222 
WAVCIS,ioos:station:WAVCIS:CSI03:1,2009-01-04T19:00:00Z,29.4412,-92.0613,10.0,15.96,11111222 
WAVCIS,ioos:station:WAVCIS:CSI03:1,2009-01-04T20:00:00Z,29.4412,-92.0613,10.0,16.32,11111222 
WAVCIS,ioos:station:WAVCIS:CSI03:1,2009-01-04T21:00:00Z,29.4412,-92.0613,10.0,16.31,11111222 
WAVCIS,ioos:station:WAVCIS:CSI03:1,2009-01-04T22:00:00Z,29.4412,-92.0613,10.0,16.27,11111222 
WAVCIS,ioos:station:WAVCIS:CSI03:1,2009-01-04T23:00:00Z,29.4412,-92.0613,10.0,16.12,11111222 
WAVCIS,ioos:station:WAVCIS:CSI03:1,2009-01-05T00:00:00Z,29.4412,-92.0613,10.0,15.71,11111222 
WAVCIS,ioos:station:WAVCIS:CSI03:1,2009-01-05T01:00:00Z,29.4412,-92.0613,10.0,16.11,11111222 
WAVCIS,ioos:station:WAVCIS:CSI03:1,2009-01-05T02:00:00Z,29.4412,-92.0613,10.0,15.71,11111222 
WAVCIS,ioos:station:WAVCIS:CSI03:1,2009-01-05T03:00:00Z,29.4412,-92.0613,10.0,15.54,11111222 
WAVCIS,ioos:station:WAVCIS:CSI03:1,2009-01-05T04:00:00Z,29.4412,-92.0613,10.0,15.38,11111222 
WAVCIS,ioos:station:WAVCIS:CSI03:1,2009-01-05T05:00:00Z,29.4412,-92.0613,10.0,15.37,11111222 
WAVCIS,ioos:station:WAVCIS:CSI03:1,2009-01-05T06:00:00Z,29.4412,-92.0613,10.0,15.24,11111222 
WAVCIS,ioos:station:WAVCIS:CSI03:1,2009-01-05T07:00:00Z,29.4412,-92.0613,10.0,15.22,11111222 
WAVCIS,ioos:station:WAVCIS:CSI03:1,2009-01-05T08:00:00Z,29.4412,-92.0613,10.0,15.25,11111222 
WAVCIS,ioos:station:WAVCIS:CSI03:1,2009-01-05T09:00:00Z,29.4412,-92.0613,10.0,14.86,11111222 
WAVCIS,ioos:station:WAVCIS:CSI03:1,2009-01-05T10:00:00Z,29.4412,-92.0613,10.0,15.28,11111222 
WAVCIS,ioos:station:WAVCIS:CSI03:1,2009-01-05T11:00:00Z,29.4412,-92.0613,10.0,15.48,11111222 
WAVCIS,ioos:station:WAVCIS:CSI03:1,2009-01-05T12:00:00Z,29.4412,-92.0613,10.0,15.51,11111222 
WAVCIS,ioos:station:WAVCIS:CSI03:1,2009-01-05T13:00:00Z,29.4412,-92.0613,10.0,15.38,11111222 
WAVCIS,ioos:station:WAVCIS:CSI03:1,2009-01-05T14:00:00Z,29.4412,-92.0613,10.0,15.39,11111222 
WAVCIS,ioos:station:WAVCIS:CSI03:1,2009-01-05T15:00:00Z,29.4412,-92.0613,10.0,15.64,11111222 
WAVCIS,ioos:station:WAVCIS:CSI03:1,2009-01-05T16:00:00Z,29.4412,-92.0613,10.0,15.98,11111222 
WAVCIS,ioos:station:WAVCIS:CSI03:1,2009-01-05T17:00:00Z,29.4412,-92.0613,10.0,16.05,11111222 
WAVCIS,ioos:station:WAVCIS:CSI03:1,2009-01-05T18:00:00Z,29.4412,-92.0613,10.0,16.0,11111222 
WAVCIS,ioos:station:WAVCIS:CSI03:1,2009-01-05T19:00:00Z,29.4412,-92.0613,10.0,16.14,11111222 
WAVCIS,ioos:station:WAVCIS:CSI03:1,2009-01-05T20:00:00Z,29.4412,-92.0613,10.0,16.06,11111222 
WAVCIS,ioos:station:WAVCIS:CSI03:1,2009-01-05T21:00:00Z,29.4412,-92.0613,10.0,16.05,11111222 
WAVCIS,ioos:station:WAVCIS:CSI03:1,2009-01-05T22:00:00Z,29.4412,-92.0613,10.0,16.19,11111222 
WAVCIS,ioos:station:WAVCIS:CSI03:1,2009-01-05T23:00:00Z,29.4412,-92.0613,10.0,16.21,11111222 
WAVCIS,ioos:station:WAVCIS:CSI03:1,2009-01-06T00:00:00Z,29.4412,-92.0613,10.0,16.23,11111222 
WAVCIS,ioos:station:WAVCIS:CSI03:1,2009-01-06T01:00:00Z,29.4412,-92.0613,10.0,16.27,11111222 
WAVCIS,ioos:station:WAVCIS:CSI03:1,2009-01-06T02:00:00Z,29.4412,-92.0613,10.0,16.31,11111222 
WAVCIS,ioos:station:WAVCIS:CSI03:1,2009-01-06T03:00:00Z,29.4412,-92.0613,10.0,16.34,11111222 
WAVCIS,ioos:station:WAVCIS:CSI03:1,2009-01-06T04:00:00Z,29.4412,-92.0613,10.0,16.34,11111222 
WAVCIS,ioos:station:WAVCIS:CSI03:1,2009-01-06T05:00:00Z,29.4412,-92.0613,10.0,16.33,11111222 
WAVCIS,ioos:station:WAVCIS:CSI03:1,2009-01-06T06:00:00Z,29.4412,-92.0613,10.0,15.75,11111222 
WAVCIS,ioos:station:WAVCIS:CSI03:1,2009-01-06T07:00:00Z,29.4412,-92.0613,10.0,15.86,11111222 
WAVCIS,ioos:station:WAVCIS:CSI03:1,2009-01-06T08:00:00Z,29.4412,-92.0613,10.0,16.07,11111222 
WAVCIS,ioos:station:WAVCIS:CSI03:1,2009-01-06T09:00:00Z,29.4412,-92.0613,10.0,16.18,11111222 
WAVCIS,ioos:station:WAVCIS:CSI03:1,2009-01-06T10:00:00Z,29.4412,-92.0613,10.0,16.21,11111222 
WAVCIS,ioos:station:WAVCIS:CSI03:1,2009-01-06T11:00:00Z,29.4412,-92.0613,10.0,16.16,11111222 
WAVCIS,ioos:station:WAVCIS:CSI03:1,2009-01-06T12:00:00Z,29.4412,-92.0613,10.0,16.22,11111222 
WAVCIS,ioos:station:WAVCIS:CSI03:1,2009-01-06T13:00:00Z,29.4412,-92.0613,10.0,16.32,11111222 
WAVCIS,ioos:station:WAVCIS:CSI03:1,2009-01-06T14:00:00Z,29.4412,-92.0613,10.0,16.44,11111222 
WAVCIS,ioos:station:WAVCIS:CSI03:1,2009-01-06T15:00:00Z,29.4412,-92.0613,10.0,16.27,11111222 
WAVCIS,ioos:station:WAVCIS:CSI03:1,2009-01-06T16:00:00Z,29.4412,-92.0613,10.0,16.03,11111222 
WAVCIS,ioos:station:WAVCIS:CSI03:1,2009-01-06T17:00:00Z,29.4412,-92.0613,10.0,16.33,11111222 
WAVCIS,ioos:station:WAVCIS:CSI03:1,2009-01-06T18:00:00Z,29.4412,-92.0613,10.0,16.41,11111222 
WAVCIS,ioos:station:WAVCIS:CSI03:1,2009-01-06T19:00:00Z,29.4412,-92.0613,10.0,16.43,11111222 
WAVCIS,ioos:station:WAVCIS:CSI03:1,2009-01-06T20:00:00Z,29.4412,-92.0613,10.0,16.42,11111222 
WAVCIS,ioos:station:WAVCIS:CSI03:1,2009-01-06T21:00:00Z,29.4412,-92.0613,10.0,16.6,11111222 
WAVCIS,ioos:station:WAVCIS:CSI03:1,2009-01-06T22:00:00Z,29.4412,-92.0613,10.0,16.77,11111222 
WAVCIS,ioos:station:WAVCIS:CSI03:1,2009-01-06T23:00:00Z,29.4412,-92.0613,10.0,17.09,11111222 
WAVCIS,ioos:station:WAVCIS:CSI03:1,2009-01-07T00:00:00Z,29.4412,-92.0613,10.0,16.96,11111222 
WAVCIS,ioos:station:WAVCIS:CSI03:1,2009-01-07T01:00:00Z,29.4412,-92.0613,10.0,16.96,11111222 
WAVCIS,ioos:station:WAVCIS:CSI03:1,2009-01-07T02:00:00Z,29.4412,-92.0613,10.0,17.05,11111222 
WAVCIS,ioos:station:WAVCIS:CSI03:1,2009-01-07T03:00:00Z,29.4412,-92.0613,10.0,17.04,11111222 
WAVCIS,ioos:station:WAVCIS:CSI03:1,2009-01-07T04:00:00Z,29.4412,-92.0613,10.0,17.0,11111222 
WAVCIS,ioos:station:WAVCIS:CSI03:1,2009-01-07T05:00:00Z,29.4412,-92.0613,10.0,16.93,11111222 
WAVCIS,ioos:station:WAVCIS:CSI03:1,2009-01-07T06:00:00Z,29.4412,-92.0613,10.0,16.81,11111222 
WAVCIS,ioos:station:WAVCIS:CSI03:1,2009-01-07T07:00:00Z,29.4412,-92.0613,10.0,16.84,11111222 
WAVCIS,ioos:station:WAVCIS:CSI03:1,2009-01-07T08:00:00Z,29.4412,-92.0613,10.0,16.41,11111222 
WAVCIS,ioos:station:WAVCIS:CSI03:1,2009-01-07T09:00:00Z,29.4412,-92.0613,10.0,16.1,11111222 
WAVCIS,ioos:station:WAVCIS:CSI03:1,2009-01-07T10:00:00Z,29.4412,-92.0613,10.0,15.93,11111222 
WAVCIS,ioos:station:WAVCIS:CSI03:1,2009-01-07T11:00:00Z,29.4412,-92.0613,10.0,15.76,11111222 
WAVCIS,ioos:station:WAVCIS:CSI03:1,2009-01-07T12:00:00Z,29.4412,-92.0613,10.0,15.57,11111222 
WAVCIS,ioos:station:WAVCIS:CSI03:1,2009-01-07T13:00:00Z,29.4412,-92.0613,10.0,15.41,11111222 
WAVCIS,ioos:station:WAVCIS:CSI03:1,2009-01-07T14:00:00Z,29.4412,-92.0613,10.0,15.27,11111222 
WAVCIS,ioos:station:WAVCIS:CSI03:1,2009-01-07T15:00:00Z,29.4412,-92.0613,10.0,15.39,11111222 
WAVCIS,ioos:station:WAVCIS:CSI03:1,2009-01-07T16:00:00Z,29.4412,-92.0613,10.0,15.54,11111222 
WAVCIS,ioos:station:WAVCIS:CSI03:1,2009-01-07T17:00:00Z,29.4412,-92.0613,10.0,15.77,11111222 
WAVCIS,ioos:station:WAVCIS:CSI03:1,2009-01-07T18:00:00Z,29.4412,-92.0613,10.0,15.82,11111222 
WAVCIS,ioos:station:WAVCIS:CSI03:1,2009-01-07T19:00:00Z,29.4412,-92.0613,10.0,15.93,11111222 
WAVCIS,ioos:station:WAVCIS:CSI03:1,2009-01-07T20:00:00Z,29.4412,-92.0613,10.0,16.26,11111222 
WAVCIS,ioos:station:WAVCIS:CSI03:1,2009-01-07T21:00:00Z,29.4412,-92.0613,10.0,16.4,11111222 
WAVCIS,ioos:station:WAVCIS:CSI03:1,2009-01-07T22:00:00Z,29.4412,-92.0613,10.0,16.62,11111222 
WAVCIS,ioos:station:WAVCIS:CSI03:1,2009-01-07T23:00:00Z,29.4412,-92.0613,10.0,16.97,11111222 
WAVCIS,ioos:station:WAVCIS:CSI03:1,2009-01-08T00:00:00Z,29.4412,-92.0613,10.0,16.82,11111222 
WAVCIS,ioos:station:WAVCIS:CSI03:1,2009-01-08T01:00:00Z,29.4412,-92.0613,10.0,16.82,11111222 
WAVCIS,ioos:station:WAVCIS:CSI03:1,2009-01-08T02:00:00Z,29.4412,-92.0613,10.0,17.0,11111222 
WAVCIS,ioos:station:WAVCIS:CSI03:1,2009-01-08T03:00:00Z,29.4412,-92.0613,10.0,16.97,11111222 
WAVCIS,ioos:station:WAVCIS:CSI03:1,2009-01-08T04:00:00Z,29.4412,-92.0613,10.0,17.0,11111222 
WAVCIS,ioos:station:WAVCIS:CSI03:1,2009-01-08T05:00:00Z,29.4412,-92.0613,10.0,16.96,11111222 
WAVCIS,ioos:station:WAVCIS:CSI03:1,2009-01-08T06:00:00Z,29.4412,-92.0613,10.0,16.86,11111222 
WAVCIS,ioos:station:WAVCIS:CSI03:1,2009-01-08T07:00:00Z,29.4412,-92.0613,10.0,16.81,11111222 
WAVCIS,ioos:station:WAVCIS:CSI03:1,2009-01-08T08:00:00Z,29.4412,-92.0613,10.0,16.68,11111222 
WAVCIS,ioos:station:WAVCIS:CSI03:1,2009-01-08T09:00:00Z,29.4412,-92.0613,10.0,16.59,11111222 
WAVCIS,ioos:station:WAVCIS:CSI03:1,2009-01-08T10:00:00Z,29.4412,-92.0613,10.0,16.49,11111222 
WAVCIS,ioos:station:WAVCIS:CSI03:1,2009-01-08T11:00:00Z,29.4412,-92.0613,10.0,16.26,11111222 
WAVCIS,ioos:station:WAVCIS:CSI03:1,2009-01-08T12:00:00Z,29.4412,-92.0613,10.0,16.4,11111222 
WAVCIS,ioos:station:WAVCIS:CSI03:1,2009-01-08T13:00:00Z,29.4412,-92.0613,10.0,16.39,11111222 
WAVCIS,ioos:station:WAVCIS:CSI03:1,2009-01-08T14:00:00Z,29.4412,-92.0613,10.0,16.36,11111222 
WAVCIS,ioos:station:WAVCIS:CSI03:1,2009-01-08T15:00:00Z,29.4412,-92.0613,10.0,16.39,11111222 
WAVCIS,ioos:station:WAVCIS:CSI03:1,2009-01-08T16:00:00Z,29.4412,-92.0613,10.0,16.38,11111222 
WAVCIS,ioos:station:WAVCIS:CSI03:1,2009-01-08T17:00:00Z,29.4412,-92.0613,10.0,16.45,11111222 
WAVCIS,ioos:station:WAVCIS:CSI03:1,2009-01-08T18:00:00Z,29.4412,-92.0613,10.0,16.57,11111222 
WAVCIS,ioos:station:WAVCIS:CSI03:1,2009-01-08T19:00:00Z,29.4412,-92.0613,10.0,16.5,11111222 
WAVCIS,ioos:station:WAVCIS:CSI03:1,2009-01-08T20:00:00Z,29.4412,-92.0613,10.0,16.63,11111222 
WAVCIS,ioos:station:WAVCIS:CSI03:1,2009-01-08T21:00:00Z,29.4412,-92.0613,10.0,17.03,11111222 
WAVCIS,ioos:station:WAVCIS:CSI03:1,2009-01-08T22:00:00Z,29.4412,-92.0613,10.0,17.07,11111222 
WAVCIS,ioos:station:WAVCIS:CSI03:1,2009-01-08T23:00:00Z,29.4412,-92.0613,10.0,16.96,11111222 
WAVCIS,ioos:station:WAVCIS:CSI03:1,2009-01-09T00:00:00Z,29.4412,-92.0613,10.0,16.89,11111222 
WAVCIS,ioos:station:WAVCIS:CSI03:1,2009-01-09T01:00:00Z,29.4412,-92.0613,10.0,16.79,11111222 
WAVCIS,ioos:station:WAVCIS:CSI03:1,2009-01-09T02:00:00Z,29.4412,-92.0613,10.0,16.82,11111222 
WAVCIS,ioos:station:WAVCIS:CSI03:1,2009-01-09T03:00:00Z,29.4412,-92.0613,10.0,16.82,11111222 
WAVCIS,ioos:station:WAVCIS:CSI03:1,2009-01-09T04:00:00Z,29.4412,-92.0613,10.0,16.79,11111222 
WAVCIS,ioos:station:WAVCIS:CSI03:1,2009-01-09T05:00:00Z,29.4412,-92.0613,10.0,16.83,11111222 
WAVCIS,ioos:station:WAVCIS:CSI03:1,2009-01-09T06:00:00Z,29.4412,-92.0613,10.0,16.93,11111222 
WAVCIS,ioos:station:WAVCIS:CSI03:1,2009-01-09T07:00:00Z,29.4412,-92.0613,10.0,16.93,11111222 
WAVCIS,ioos:station:WAVCIS:CSI03:1,2009-01-09T08:00:00Z,29.4412,-92.0613,10.0,16.84,11111222 
WAVCIS,ioos:station:WAVCIS:CSI03:1,2009-01-09T09:00:00Z,29.4412,-92.0613,10.0,16.61,11111222 
WAVCIS,ioos:station:WAVCIS:CSI03:1,2009-01-09T10:00:00Z,29.4412,-92.0613,10.0,16.43,11111222 
WAVCIS,ioos:station:WAVCIS:CSI03:1,2009-01-09T11:00:00Z,29.4412,-92.0613,10.0,16.38,11111222 
WAVCIS,ioos:station:WAVCIS:CSI03:1,2009-01-09T12:00:00Z,29.4412,-92.0613,10.0,16.39,11111222 
WAVCIS,ioos:station:WAVCIS:CSI03:1,2009-01-09T13:00:00Z,29.4412,-92.0613,10.0,16.05,11111222 
WAVCIS,ioos:station:WAVCIS:CSI03:1,2009-01-09T14:00:00Z,29.4412,-92.0613,10.0,15.9,11111222 
WAVCIS,ioos:station:WAVCIS:CSI03:1,2009-01-09T15:00:00Z,29.4412,-92.0613,10.0,16.07,11111222 
WAVCIS,ioos:station:WAVCIS:CSI03:1,2009-01-09T16:00:00Z,29.4412,-92.0613,10.0,16.49,11111222 
WAVCIS,ioos:station:WAVCIS:CSI03:1,2009-01-09T17:00:00Z,29.4412,-92.0613,10.0,16.92,11111222 
WAVCIS,ioos:station:WAVCIS:CSI03:1,2009-01-09T18:00:00Z,29.4412,-92.0613,10.0,17.07,11111222 
WAVCIS,ioos:station:WAVCIS:CSI03:1,2009-01-09T19:00:00Z,29.4412,-92.0613,10.0,17.17,11111222 
WAVCIS,ioos:station:WAVCIS:CSI03:1,2009-01-09T20:00:00Z,29.4412,-92.0613,10.0,17.12,11111222 
WAVCIS,ioos:station:WAVCIS:CSI03:1,2009-01-09T21:00:00Z,29.4412,-92.0613,10.0,17.31,11111222 
WAVCIS,ioos:station:WAVCIS:CSI03:1,2009-01-09T22:00:00Z,29.4412,-92.0613,10.0,17.32,11111222 
WAVCIS,ioos:station:WAVCIS:CSI03:1,2009-01-09T23:00:00Z,29.4412,-92.0613,10.0,16.81,11111222 
WAVCIS,ioos:station:WAVCIS:CSI03:1,2009-01-10T00:00:00Z,29.4412,-92.0613,10.0,16.86,11111222 
WAVCIS,ioos:station:WAVCIS:CSI03:1,2009-01-10T01:00:00Z,29.4412,-92.0613,10.0,17.15,11111222 
WAVCIS,ioos:station:WAVCIS:CSI03:1,2009-01-10T02:00:00Z,29.4412,-92.0613,10.0,16.97,11111222 
WAVCIS,ioos:station:WAVCIS:CSI03:1,2009-01-10T03:00:00Z,29.4412,-92.0613,10.0,16.92,11111222 
WAVCIS,ioos:station:WAVCIS:CSI03:1,2009-01-10T04:00:00Z,29.4412,-92.0613,10.0,16.98,11111222 
WAVCIS,ioos:station:WAVCIS:CSI03:1,2009-01-10T05:00:00Z,29.4412,-92.0613,10.0,17.04,11111222 
WAVCIS,ioos:station:WAVCIS:CSI03:1,2009-01-10T06:00:00Z,29.4412,-92.0613,10.0,17.02,11111222 
WAVCIS,ioos:station:WAVCIS:CSI03:1,2009-01-10T07:00:00Z,29.4412,-92.0613,10.0,17.11,11111222 
WAVCIS,ioos:station:WAVCIS:CSI03:1,2009-01-10T08:00:00Z,29.4412,-92.0613,10.0,17.0,11111222 
WAVCIS,ioos:station:WAVCIS:CSI03:1,2009-01-10T09:00:00Z,29.4412,-92.0613,10.0,17.05,11111222 
WAVCIS,ioos:station:WAVCIS:CSI03:1,2009-01-10T10:00:00Z,29.4412,-92.0613,10.0,17.14,11111222 
WAVCIS,ioos:station:WAVCIS:CSI03:1,2009-01-10T11:00:00Z,29.4412,-92.0613,10.0,17.09,11111222 
WAVCIS,ioos:station:WAVCIS:CSI03:1,2009-01-10T12:00:00Z,29.4412,-92.0613,10.0,16.56,11111222 
WAVCIS,ioos:station:WAVCIS:CSI03:1,2009-01-10T13:00:00Z,29.4412,-92.0613,10.0,16.17,11111222 
WAVCIS,ioos:station:WAVCIS:CSI03:1,2009-01-10T14:00:00Z,29.4412,-92.0613,10.0,16.2,11111222 
WAVCIS,ioos:station:WAVCIS:CSI03:1,2009-01-10T15:00:00Z,29.4412,-92.0613,10.0,15.98,11111222 
WAVCIS,ioos:station:WAVCIS:CSI03:1,2009-01-10T16:00:00Z,29.4412,-92.0613,10.0,16.62,11111222 
WAVCIS,ioos:station:WAVCIS:CSI03:1,2009-01-10T17:00:00Z,29.4412,-92.0613,10.0,16.95,11111222 
WAVCIS,ioos:station:WAVCIS:CSI03:1,2009-01-10T18:00:00Z,29.4412,-92.0613,10.0,17.12,11111222 
WAVCIS,ioos:station:WAVCIS:CSI03:1,2009-01-10T19:00:00Z,29.4412,-92.0613,10.0,17.41,11111222 
WAVCIS,ioos:station:WAVCIS:CSI03:1,2009-01-10T20:00:00Z,29.4412,-92.0613,10.0,17.76,11111222 
WAVCIS,ioos:station:WAVCIS:CSI03:1,2009-01-10T21:00:00Z,29.4412,-92.0613,10.0,17.71,11111222 
WAVCIS,ioos:station:WAVCIS:CSI03:1,2009-01-10T22:00:00Z,29.4412,-92.0613,10.0,17.68,11111222 
WAVCIS,ioos:station:WAVCIS:CSI03:1,2009-01-10T23:00:00Z,29.4412,-92.0613,10.0,17.83,11111222 
WAVCIS,ioos:station:WAVCIS:CSI03:1,2009-01-11T00:00:00Z,29.4412,-92.0613,10.0,17.88,11111222 
WAVCIS,ioos:station:WAVCIS:CSI03:1,2009-01-11T01:00:00Z,29.4412,-92.0613,10.0,17.74,11111222 
WAVCIS,ioos:station:WAVCIS:CSI03:1,2009-01-11T02:00:00Z,29.4412,-92.0613,10.0,17.76,11111222 
WAVCIS,ioos:station:WAVCIS:CSI03:1,2009-01-11T03:00:00Z,29.4412,-92.0613,10.0,17.73,11111222 
WAVCIS,ioos:station:WAVCIS:CSI03:1,2009-01-11T04:00:00Z,29.4412,-92.0613,10.0,17.67,11111222 
WAVCIS,ioos:station:WAVCIS:CSI03:1,2009-01-11T05:00:00Z,29.4412,-92.0613,10.0,17.63,11111222 
WAVCIS,ioos:station:WAVCIS:CSI03:1,2009-01-11T06:00:00Z,29.4412,-92.0613,10.0,17.5,11111222 
WAVCIS,ioos:station:WAVCIS:CSI03:1,2009-01-11T07:00:00Z,29.4412,-92.0613,10.0,17.37,11111222 
WAVCIS,ioos:station:WAVCIS:CSI03:1,2009-01-11T08:00:00Z,29.4412,-92.0613,10.0,17.23,11111222 
WAVCIS,ioos:station:WAVCIS:CSI03:1,2009-01-11T09:00:00Z,29.4412,-92.0613,10.0,17.14,11111222 
WAVCIS,ioos:station:WAVCIS:CSI03:1,2009-01-11T10:00:00Z,29.4412,-92.0613,10.0,17.13,11111222 
WAVCIS,ioos:station:WAVCIS:CSI03:1,2009-01-11T11:00:00Z,29.4412,-92.0613,10.0,16.8,11111222 
WAVCIS,ioos:station:WAVCIS:CSI03:1,2009-01-11T12:00:00Z,29.4412,-92.0613,10.0,16.4,11111222 
WAVCIS,ioos:station:WAVCIS:CSI03:1,2009-01-11T13:00:00Z,29.4412,-92.0613,10.0,16.21,11111222 